COSMOS 2251 DEB, 37968

Orbit data source: Space-Track

COSMOS 2251 DEB, 37968 is space debris in LEO originally from a launch on Wed, 16 Jun 1993 UTC launched from the Plesetsk Missile And Space Complex (PKMTR). The debris from Iridium 33, an American commercial communications satellite, has been tracked extensively since its accidental collision with the defunct Russian satellite Cosmos 2251 in 2009. This event, occurring at high speed in low Earth orbit (LEO), generated thousands of pieces of space debris, significantly increasing the risk of further collisions. The Iridium 33 debris cloud has impacted space traffic management and orbital debris mitigation strategies, making it a subject of ongoing study in space situational awareness.

Loading next visibility...
Identifier
37968, 1993-036BPT
Orbit
LEO
Country
Flag of CISCIS
Related business
Manufacturer
Unknown
Mission
Spacecraft
Bus & Motor
Unknown
Mass
Unknown
Launch date (UTC)
1993-06-16 (32 years ago)
Launch vehicle
Unknown
Launch site
Plesetsk Missile And Space Complex (PKMTR)
Object type
Payload
Rocket body
Debris
Shape & HBR
Unknown shape, 0.1 m
Radar Cross Section
Small (<0.1 m²)

Expand to show TLE details & history
Last TLE update: 20 hours ago

TLE from 20 hours ago
0 COSMOS 2251 DEB
1 37968U 93036BPT 25286.56805558  .00020272  00000-0  15631-2 0  9990
2 37968  74.0024  33.6608 0084033 166.5506 193.7949 14.98745486593178
Epoch: 2025-10-13T13:38Z
TLE epoch observation values (Epoch: 2025-10-13T13:38:00.002Z)
Latitude
-0.00002°
Longitude
166.79182°
Altitude
630.203 km
Speed
7.513 km/s
True Right ascension
02h 14m 38s
True Declination
0° 00' 00"
Sunlit
Object was in full shadow at epoch
Visualization orbit readout
Latitude
Unknown
Longitude
Unknown
Altitude
Unknown
Speed
Unknown
Apparent Right ascension
Unknown
Apparent Declination
Unknown
Sunlit
N/A
Visualization observer readout
Local Sidereal Time
04:09:36
Azimuth
Unknown
Elevation
Unknown
Doppler factor
Unknown
Orbital elements
Apogee altitude
626.702 km
Perigee altitude
509.956 km
Semi-major axis
6,946.466 km
Eccentricity
0.0084
Inclination
74.0024°
RAAN
33.6608°
Arg. of periapsis
166.5506°
True anomaly
193.56761°
Mean anomaly
193.7949°
Eccentric anomaly
193.68102°
Mean motion
3.74884 °/min
Orbital period
96.03 mins
BSTAR
0.0015631
Loading maneuver chart data...
Computing Atmospheric mass density...

Documentation

Showing up to 5 results
|